| time (UTC) | temp F | wind direction | speed MPH | gust MPH | rain 1hr in | rain 24hr in | rain mn in | humidity % | barometer mb |
| 20260905050011 | 55 | 54 | 0.0 | 0.0 | 0.00 | 0.02 | 0.02 | 92 | 1013.6 |
| 20260905043047 | 56 | 54 | 0.0 | 0.0 | 0.00 | 0.02 | 0.02 | 91 | 1013.7 |
| 20260905041531 | 56 | 54 | 0.0 | 0.0 | 0.00 | 0.02 | 0.02 | 91 | 1013.6 |
| 20260905040052 | 56 | 54 | 0.0 | 0.0 | 0.00 | 0.02 | 0.02 | 91 | 1013.6 |
| 20260905034538 | 56 | 54 | 0.0 | 0.0 | 0.00 | 0.02 | 0.02 | 90 | 1013.4 |
| 20260905033024 | 57 | 54 | 0.0 | 0.0 | 0.00 | 0.02 | 0.02 | 89 | 1013.3 |
| 20260905031508 | 57 | 54 | 0.0 | 0.0 | 0.00 | 0.02 | 0.02 | 89 | 1013.1 |
| 20260905030059 | 58 | 54 | 0.0 | 0.0 | 0.00 | 0.02 | 0.02 | 88 | 1013.0 |
| 20260905024543 | 58 | 53 | 0.0 | 0.0 | 0.00 | 0.02 | 0.02 | 87 | 1013.1 |
| 20260905023105 | 58 | 53 | 0.0 | 0.0 | 0.00 | 0.02 | 0.02 | 87 | 1013.1 |
| 20260905021550 | 59 | 53 | 0.0 | 1.0 | 0.00 | 0.02 | 0.02 | 86 | 1013.0 |
| 20260905020037 | 59 | 53 | 0.0 | 0.0 | 0.00 | 0.02 | 0.02 | 86 | 1012.9 |
| 20260905014521 | 59 | 53 | 0.0 | 1.0 | 0.00 | 0.02 | 0.02 | 86 | 1012.7 |
| 20260905013006 | 59 | 106 | 0.0 | 1.0 | 0.00 | 0.02 | 0.02 | 85 | 1012.6 |
| 20260905011544 | 60 | 130 | 0.0 | 0.0 | 0.00 | 0.02 | 0.02 | 85 | 1012.5 |
| 20260905010033 | 60 | 130 | 0.0 | 0.0 | 0.00 | 0.02 | 0.02 | 85 | 1012.3 |
| 20260905004516 | 60 | 137 | 0.0 | 0.0 | 0.00 | 0.02 | 0.02 | 87 | 1012.3 |
| 20260905003007 | 60 | 124 | 0.0 | 3.0 | 0.00 | 0.02 | 0.02 | 87 | 1012.3 |
| 20260905001556 | 60 | 54 | 1.0 | 3.0 | 0.00 | 0.02 | 0.02 | 87 | 1012.3 |
| 20260905000020 | 60 | 358 | 0.0 | 2.0 | 0.00 | 0.02 | 0.02 | 87 | 1012.2 |
| 20260904234515 | 60 | 132 | 0.0 | 1.0 | 0.00 | 0.02 | 0.02 | 89 | 1012.3 |
| 20260904233058 | 59 | 135 | 0.0 | 2.0 | 0.00 | 0.02 | 0.02 | 88 | 1012.2 |
| 20260904231543 | 59 | 126 | 0.0 | 0.0 | 0.01 | 0.02 | 0.02 | 88 | 1012.2 |
| 20260904230030 | 58 | 127 | 0.0 | 1.0 | 0.01 | 0.02 | 0.02 | 87 | 1012.2 |
| 20260904224518 | 58 | 220 | 0.0 | 1.0 | 0.01 | 0.02 | 0.02 | 88 | 1012.2 |
| 20260904223004 | 58 | 131 | 0.0 | 4.0 | 0.01 | 0.02 | 0.02 | 88 | 1012.3 |
| 20260904221557 | 58 | 130 | 0.0 | 5.0 | 0.00 | 0.01 | 0.01 | 87 | 1012.3 |
| 20260904220042 | 59 | 150 | 0.0 | 1.0 | 0.00 | 0.01 | 0.01 | 84 | 1011.9 |
| 20260904214527 | 60 | 224 | 1.0 | 11.0 | 0.00 | 0.01 | 0.01 | 80 | 1011.8 |
| 20260904213009 | 66 | 192 | 2.0 | 5.0 | 0.00 | 0.01 | 0.01 | 66 | 1011.4 |
| 20260904211603 | 67 | 213 | 0.0 | 2.0 | 0.00 | 0.01 | 0.01 | 61 | 1011.0 |
| 20260904210039 | 66 | 312 | 0.0 | 2.0 | 0.00 | 0.01 | 0.01 | 59 | 1010.8 |
| 20260904204520 | 67 | 344 | 3.0 | 7.0 | 0.00 | 0.01 | 0.01 | 59 | 1010.7 |
| 20260904203009 | 66 | 295 | 2.0 | 5.0 | 0.00 | 0.01 | 0.01 | 59 | 1010.7 |
| 20260904201555 | 65 | 71 | 1.0 | 2.0 | 0.00 | 0.01 | 0.01 | 61 | 1010.7 |
| 20260904200040 | 65 | 41 | 1.0 | 4.0 | 0.00 | 0.01 | 0.01 | 62 | 1010.8 |
| 20260904194526 | 65 | 280 | 2.0 | 5.0 | 0.00 | 0.02 | 0.01 | 61 | 1010.9 |
| 20260904193011 | 65 | 338 | 0.0 | 5.0 | 0.00 | 0.02 | 0.01 | 63 | 1011.1 |
| 20260904191617 | 65 | 133 | 0.0 | 3.0 | 0.00 | 0.02 | 0.01 | 64 | 1011.2 |
| 20260904190042 | 63 | 313 | 0.0 | 3.0 | 0.00 | 0.02 | 0.01 | 67 | 1011.3 |
| 20260904184526 | 63 | 352 | 0.0 | 3.0 | 0.00 | 0.02 | 0.01 | 68 | 1011.3 |
| 20260904183011 | 63 | 293 | 1.0 | 4.0 | 0.00 | 0.02 | 0.01 | 69 | 1011.2 |
| 20260904181600 | 63 | 321 | 3.0 | 6.0 | 0.00 | 0.02 | 0.01 | 70 | 1011.2 |
| 20260904180044 | 61 | 274 | 0.0 | 4.0 | 0.00 | 0.02 | 0.01 | 76 | 1011.1 |
| 20260904174527 | 60 | 24 | 1.0 | 5.0 | 0.00 | 0.02 | 0.01 | 80 | 1011.1 |
| 20260904173011 | 59 | 25 | 0.0 | 1.0 | 0.00 | 0.02 | 0.01 | 82 | 1011.0 |
| 20260904171512 | 58 | 60 | 0.0 | 2.0 | 0.00 | 0.02 | 0.01 | 83 | 1010.9 |
| 20260904164551 | 58 | 44 | 0.0 | 3.0 | 0.00 | 0.02 | 0.01 | 85 | 1010.9 |
| 20260904163033 | 57 | 18 | 0.0 | 2.0 | 0.00 | 0.02 | 0.01 | 87 | 1010.8 |
| 20260904161515 | 56 | 126 | 0.0 | 1.0 | 0.00 | 0.02 | 0.01 | 88 | 1010.7 |
| 20260904160110 | 55 | 133 | 0.0 | 1.0 | 0.00 | 0.02 | 0.01 | 90 | 1010.8 |
| 20260904154552 | 54 | 74 | 0.0 | 2.0 | 0.00 | 0.04 | 0.01 | 92 | 1010.9 |
| 20260904153035 | 54 | 120 | 0.0 | 3.0 | 0.00 | 0.04 | 0.01 | 92 | 1010.9 |
| 20260904151554 | 54 | 107 | 0.0 | 3.0 | 0.00 | 0.04 | 0.01 | 93 | 1010.6 |
| 20260904150043 | 53 | 64 | 0.0 | 2.0 | 0.00 | 0.04 | 0.01 | 93 | 1010.3 |
| 20260904144521 | 53 | 131 | 0.0 | 0.0 | 0.00 | 0.06 | 0.01 | 93 | 1010.3 |
| 20260904143005 | 53 | 131 | 0.0 | 0.0 | 0.00 | 0.06 | 0.01 | 93 | 1010.3 |
| 20260904141556 | 53 | 128 | 0.0 | 1.0 | 0.00 | 0.06 | 0.01 | 93 | 1010.2 |
| 20260904134615 | 52 | 139 | 0.0 | 0.0 | 0.00 | 0.06 | 0.01 | 93 | 1009.9 |
| 20260904133054 | 52 | 139 | 0.0 | 0.0 | 0.00 | 0.06 | 0.01 | 93 | 1009.7 |
| 20260904131530 | 52 | 139 | 0.0 | 0.0 | 0.01 | 0.06 | 0.01 | 93 | 1009.8 |
| 20260904130004 | 52 | 123 | 0.0 | 1.0 | 0.01 | 0.06 | 0.01 | 93 | 1009.5 |
| 20260904124603 | 52 | 121 | 0.0 | 0.0 | 0.01 | 0.06 | 0.01 | 93 | 1009.2 |
| 20260904123031 | 52 | 117 | 0.0 | 0.0 | 0.01 | 0.06 | 0.01 | 93 | 1009.2 |
| 20260904121518 | 52 | 54 | 0.0 | 1.0 | 0.00 | 0.05 | 0.00 | 92 | 1009.1 |
| 20260904120057 | 53 | 133 | 0.0 | 0.0 | 0.00 | 0.05 | 0.00 | 92 | 1009.2 |
| 20260904114534 | 53 | 136 | 0.0 | 0.0 | 0.00 | 0.05 | 0.00 | 91 | 1009.1 |
| 20260904113016 | 53 | 134 | 0.0 | 1.0 | 0.00 | 0.05 | 0.00 | 91 | 1008.9 |
| 20260904111602 | 53 | 134 | 0.0 | 1.0 | 0.00 | 0.05 | 0.00 | 90 | 1008.9 |
| 20260904110048 | 53 | 133 | 0.0 | 2.0 | 0.00 | 0.05 | 0.00 | 90 | 1008.8 |
| 20260904104525 | 53 | 126 | 0.0 | 1.0 | 0.00 | 0.05 | 0.00 | 91 | 1008.8 |
| 20260904103002 | 53 | 127 | 0.0 | 1.0 | 0.00 | 0.05 | 0.00 | 92 | 1008.7 |
| 20260904101554 | 53 | 122 | 0.0 | 1.0 | 0.00 | 0.05 | 0.00 | 92 | 1008.7 |
| 20260904100028 | 53 | 127 | 0.0 | 0.0 | 0.00 | 0.05 | 0.00 | 92 | 1008.6 |
| 20260904094514 | 53 | 135 | 0.0 | 0.0 | 0.00 | 0.06 | 0.00 | 92 | 1008.6 |
| 20260904093028 | 53 | 127 | 0.0 | 0.0 | 0.00 | 0.06 | 0.00 | 92 | 1008.5 |
| 20260904091510 | 53 | 127 | 0.0 | 0.0 | 0.00 | 0.06 | 0.00 | 91 | 1008.4 |
| 20260904090020 | 53 | 131 | 0.0 | 1.0 | 0.00 | 0.06 | 0.00 | 91 | 1008.4 |
| 20260904084608 | 54 | 132 | 0.0 | 0.0 | 0.00 | 0.06 | 0.00 | 91 | 1008.4 |
| 20260904083053 | 54 | 133 | 0.0 | 1.0 | 0.00 | 0.06 | 0.00 | 91 | 1008.4 |
| 20260904081535 | 54 | 123 | 0.0 | 1.0 | 0.00 | 0.06 | 0.00 | 91 | 1008.4 |
| 20260904080020 | 55 | 130 | 0.0 | 1.0 | 0.00 | 0.06 | 0.00 | 91 | 1008.3 |
| 20260904074509 | 55 | 122 | 0.0 | 2.0 | 0.00 | 0.06 | 0.00 | 92 | 1008.4 |
| 20260904073103 | 55 | 132 | 0.0 | 1.0 | 0.00 | 0.06 | 0.00 | 93 | 1008.4 |
| 20260904071549 | 55 | 129 | 0.0 | 2.0 | 0.00 | 0.06 | 0.00 | 93 | 1008.4 |
| 20260904070025 | 55 | 136 | 0.0 | 1.0 | 0.00 | 0.06 | 0.00 | 93 | 1008.4 |
| 20260904064606 | 55 | 138 | 0.0 | 1.0 | 0.00 | 0.06 | 0.06 | 92 | 1008.3 |
| 20260904063055 | 55 | 113 | 0.0 | 1.0 | 0.00 | 0.06 | 0.06 | 92 | 1008.3 |
| 20260904061526 | 56 | 55 | 0.0 | 1.0 | 0.00 | 0.06 | 0.06 | 91 | 1008.3 |
| 20260904060006 | 56 | 135 | 0.0 | 1.0 | 0.00 | 0.06 | 0.06 | 91 | 1008.4 |
| 20260904054541 | 56 | 124 | 0.0 | 0.0 | 0.00 | 0.06 | 0.06 | 90 | 1008.4 |
| 20260904053102 | 56 | 124 | 0.0 | 0.0 | 0.00 | 0.06 | 0.06 | 90 | 1008.5 |
| 20260904051558 | 56 | 124 | 0.0 | 0.0 | 0.00 | 0.06 | 0.06 | 90 | 1008.5 |